| time (UTC) | temp F | wind direction | speed MPH | gust MPH | rain 1hr in | rain 24hr in | rain mn in | humidity % | barometer mb |
| 20260507124320 | 53 | 242 | 2.0 | 9.0 | 0.00 | 0.32 | 0.03 | 73 | 1007.3 |
| 20260507121326 | 51 | 267 | 2.0 | 10.0 | 0.00 | 0.32 | 0.03 | 81 | 1007.6 |
| 20260507114307 | 48 | 349 | 1.0 | 7.0 | 0.00 | 0.32 | 0.03 | 90 | 1007.6 |
| 20260507111306 | 47 | 0 | 0.0 | 3.0 | 0.00 | 0.32 | 0.03 | 92 | 1007.4 |
| 20260507104304 | 46 | 314 | 0.0 | 5.0 | 0.00 | 0.32 | 0.03 | 93 | 1007.0 |
| 20260507101303 | 46 | 13 | 0.0 | 4.0 | 0.00 | 0.32 | 0.03 | 93 | 1006.7 |
| 20260507094300 | 47 | 259 | 0.0 | 5.0 | 0.00 | 0.32 | 0.03 | 93 | 1007.2 |
| 20260507091259 | 47 | 9 | 0.0 | 5.0 | 0.01 | 0.32 | 0.03 | 92 | 1006.9 |
| 20260507084258 | 48 | 296 | 0.0 | 4.0 | 0.03 | 0.32 | 0.03 | 92 | 1007.1 |
| 20260507081300 | 49 | 317 | 0.0 | 5.0 | 0.02 | 0.31 | 0.02 | 91 | 1006.5 |
| 20260507074239 | 50 | 269 | 1.0 | 7.0 | 0.00 | 0.29 | 0.00 | 89 | 1006.8 |
| 20260507071241 | 50 | 33 | 0.0 | 3.0 | 0.00 | 0.29 | 0.00 | 89 | 1006.1 |
| 20260507064233 | 51 | 355 | 1.0 | 8.0 | 0.00 | 0.29 | 0.00 | 89 | 1006.1 |
| 20260507061234 | 51 | 222 | 1.0 | 8.0 | 0.00 | 0.29 | 0.00 | 89 | 1005.8 |
| 20260507054233 | 51 | 264 | 1.0 | 8.0 | 0.00 | 0.29 | 0.00 | 90 | 1006.6 |
| 20260507051224 | 52 | 308 | 1.0 | 8.0 | 0.00 | 0.29 | 0.00 | 91 | 1006.5 |
| 20260507044221 | 53 | 0 | 2.0 | 9.0 | 0.00 | 0.29 | 0.00 | 93 | 1006.0 |
| 20260507041222 | 54 | 306 | 1.0 | 9.0 | 0.00 | 0.29 | 0.00 | 94 | 1006.3 |
| 20260507034222 | 55 | 336 | 4.0 | 10.0 | 0.00 | 0.29 | 0.29 | 95 | 1005.9 |
| 20260507032550 | 56 | 14 | 1.0 | 10.0 | 0.00 | 0.29 | 0.29 | 96 | 1005.3 |
| 20260507024208 | 59 | 277 | 0.0 | 3.0 | 0.00 | 0.29 | 0.29 | 97 | 1005.2 |
| 20260507021153 | 59 | 149 | 0.0 | 2.0 | 0.01 | 0.29 | 0.29 | 97 | 1004.6 |
| 20260507014133 | 59 | 130 | 0.0 | 5.0 | 0.01 | 0.29 | 0.29 | 97 | 1004.7 |
| 20260507011126 | 59 | 192 | 0.0 | 5.0 | 0.00 | 0.28 | 0.28 | 97 | 1004.7 |
| 20260507004125 | 59 | 190 | 0.0 | 6.0 | 0.00 | 0.28 | 0.28 | 96 | 1004.7 |
| 20260507001123 | 59 | 126 | 0.0 | 4.0 | 0.00 | 0.28 | 0.28 | 96 | 1004.6 |
| 20260506234122 | 59 | 157 | 0.0 | 8.0 | 0.04 | 0.28 | 0.28 | 96 | 1004.4 |
| 20260506232509 | 59 | 162 | 1.0 | 7.0 | 0.05 | 0.28 | 0.28 | 96 | 1004.4 |
| 20260506224044 | 59 | 209 | 1.0 | 7.0 | 0.03 | 0.24 | 0.24 | 96 | 1004.6 |
| 20260506221040 | 60 | 134 | 1.0 | 7.0 | 0.05 | 0.23 | 0.23 | 95 | 1004.7 |
| 20260506214040 | 60 | 149 | 1.0 | 8.0 | 0.08 | 0.21 | 0.21 | 95 | 1004.8 |
| 20260506211043 | 60 | 171 | 2.0 | 14.0 | 0.10 | 0.18 | 0.18 | 94 | 1005.0 |
| 20260506204025 | 61 | 166 | 1.0 | 12.0 | 0.05 | 0.13 | 0.13 | 94 | 1005.3 |
| 20260506201028 | 61 | 122 | 1.0 | 9.0 | 0.01 | 0.08 | 0.09 | 93 | 1005.4 |
| 20260506195401 | 62 | 201 | 1.0 | 10.0 | 0.03 | 0.08 | 0.08 | 93 | 1005.5 |
| 20260506191012 | 63 | 167 | 0.0 | 3.0 | 0.07 | 0.07 | 0.07 | 91 | 1005.2 |
| 20260506184012 | 64 | 26 | 0.0 | 4.0 | 0.05 | 0.05 | 0.05 | 89 | 1005.7 |
| 20260506181024 | 67 | 262 | 1.0 | 9.0 | 0.00 | 0.00 | 0.01 | 80 | 1006.3 |
| 20260506174010 | 70 | 281 | 3.0 | 24.0 | 0.00 | 0.00 | 0.00 | 67 | 1006.1 |
| 20260506170946 | 74 | 185 | 3.0 | 18.0 | 0.00 | 0.00 | 0.00 | 60 | 1005.7 |
| 20260506163923 | 72 | 277 | 2.0 | 12.0 | 0.00 | 0.00 | 0.00 | 64 | 1006.1 |
| 20260506160855 | 71 | 143 | 1.0 | 12.0 | 0.00 | 0.00 | 0.00 | 66 | 1006.6 |
| 20260506155242 | 70 | 135 | 1.0 | 11.0 | 0.00 | 0.00 | 0.00 | 67 | 1007.4 |
| 20260506150831 | 71 | 152 | 1.0 | 14.0 | 0.00 | 0.00 | 0.00 | 67 | 1007.8 |
| 20260506143826 | 69 | 165 | 2.0 | 10.0 | 0.00 | 0.00 | 0.00 | 69 | 1007.7 |
| 20260506140819 | 69 | 95 | 3.0 | 9.0 | 0.00 | 0.00 | 0.00 | 71 | 1007.4 |
| 20260506133832 | 67 | 199 | 1.0 | 10.0 | 0.00 | 0.00 | 0.00 | 74 | 1007.7 |
| 20260506130819 | 65 | 158 | 2.0 | 10.0 | 0.00 | 0.00 | 0.00 | 75 | 1008.3 |